STARLINK-2400, 47817

Orbit data source: Space-Track

STARLINK-2400, 47817 is a payload satellite owned by SpaceX/Seattle (US) in LEO that was launched on Thu, 11 Mar 2021 UTC via an FALCON 9 launch vehicle from the Air Force Eastern Test Range (AFETR). Payload-class satellites include a variety of spacecraft equipped with specific instruments for various scientific and technological missions. These include communications satellites like Starlink; space stations such as the ISS; scientific satellites like the Hubble; Earth observation satellites from companies like Planet Labs, Umbra, and HawkEye 360; GPS; miniature CubeSats for education and research; and military/defense satellites.

Loading next visibility...
Identifier
47817, 2021-018AG
Orbit
LEO
Country
Flag of USUS
Related business
Manufacturer
SpaceX/Seattle
Mission
Operational Commercial Communications
Bus & Motor
STARLINK, Unknown motor
Mass
260 kg wet, ~248 kg dry
Launch date (UTC)
2021-03-11 (5 years ago)
Launch vehicle
FALCON 9
Launch site
Air Force Eastern Test Range (AFETR)
Object type
Payload
Rocket body
Debris
Shape & HBR
Box + 1 Pan, 10.1 m
Radar Cross Section
13.562 m², Large (>1 m²)

Expand to show TLE details & history
Last TLE update: 14 hours ago

TLE from 14 hours ago
0 STARLINK-2400
1 47817U 21018AG  26035.30331197  .00185391  00000-0  61503-2 0  9996
2 47817  53.1540  38.2004 0001168  84.7621 275.3513 15.30023963271602
Epoch: 2026-02-04T07:16Z
TLE epoch observation values (Epoch: 2026-02-04T07:16:46.154Z)
Latitude
Longitude
154.53627°
Altitude
476.565 km
Speed
7.629 km/s
True Right ascension
02h 32m 48s
True Declination
0° 00' 00"
Sunlit
Object was in daylight at epoch
Visualization orbit readout
Latitude
Unknown
Longitude
Unknown
Altitude
Unknown
Speed
Unknown
Apparent Right ascension
Unknown
Apparent Declination
Unknown
Sunlit
N/A
Visualization observer readout
Local Sidereal Time
23:27:58
Azimuth
Unknown
Elevation
Unknown
Doppler factor
Unknown
Orbital elements
Apogee altitude
476.799 km
Perigee altitude
475.198 km
Semi-major axis
6,854.135 km
Eccentricity
0.00012
Inclination
53.154°
RAAN
38.2004°
Arg. of periapsis
84.7621°
True anomaly
275.33797°
Mean anomaly
275.3513°
Eccentric anomaly
275.34464°
Mean motion
3.82485 °/min
Orbital period
94.12 mins
BSTAR
0.0061503
Loading maneuver chart data...
Computing Atmospheric mass density...
Loading historical data...
Loading historical data...
Loading historical data...
Loading historical data...
Loading historical data...
Loading historical data...
Loading historical data...

Documentation

Showing up to 5 results
|